DW2932 Weather Reports


Display with metric or nautical units.
time (UTC)temp
F
wind
direction
speed
MPH
gust
MPH
rain 1hr
in
rain 24hr
in
rain mn
in
humidity
%
barometer
mb
20260503184129 80 124 2.0 10.0 0.00 0.00 0.00 29 1014.2
20260503183127 79 95 3.0 9.0 0.00 0.00 0.00 30 1014.3
20260503182145 79 110 1.0 8.0 0.00 0.00 0.00 31 1014.3
20260503181120 78 103 3.0 11.0 0.00 0.00 0.00 32 1014.4
20260503180121 78 113 2.0 9.0 0.00 0.00 0.00 32 1014.5
20260503175118 78 117 3.0 10.0 0.00 0.00 0.00 31 1014.5
20260503174114 77 176 1.0 6.0 0.00 0.00 0.00 33 1014.6
20260503173116 77 116 0.0 8.0 0.00 0.00 0.00 35 1014.6
20260503172113 76 95 0.0 4.0 0.00 0.00 0.00 36 1014.7
20260503171111 75 95 1.0 4.0 0.00 0.00 0.00 39 1014.7
20260503170113 74 102 0.0 1.0 0.00 0.00 0.00 45 1014.8
20260503160118 65 177 0.0 0.0 0.00 0.00 0.00 56 1015.3
20260503150130 55 133 0.0 0.0 0.00 0.00 0.00 77 1015.5
20260503140118 42 133 0.0 0.0 0.00 0.00 0.00 95 1015.3
20260503131142 39 133 0.0 0.0 0.00 0.00 0.00 94 1015.0
20260503130118 39 133 0.0 0.0 0.00 0.00 0.00 94 1015.0
20260503120126 40 133 0.0 0.0 0.00 0.00 0.00 94 1015.1
20260503110116 42 133 0.0 0.0 0.00 0.00 0.00 93 1015.3
20260503100118 43 133 0.0 0.0 0.00 0.00 0.00 92 1015.2
20260503090121 45 133 0.0 0.0 0.00 0.00 0.00 91 1015.2
20260503081143 47 133 0.0 0.0 0.00 0.00 0.00 89 1015.2
20260503080119 47 133 0.0 0.0 0.00 0.00 0.00 88 1015.3
20260503072111 48 133 0.0 0.0 0.00 0.00 0.00 86 1015.4
20260503071123 49 133 0.0 0.0 0.00 0.00 0.00 85 1015.2
20260503070119 49 133 0.0 0.0 0.00 0.00 0.00 84 1015.3
20260503060126 52 133 0.0 0.0 0.00 0.00 0.00 77 1015.3
20260503055122 53 123 0.0 2.0 0.00 0.00 0.00 77 1015.2
20260503054118 53 134 0.0 0.0 0.00 0.00 0.00 76 1015.2
20260503053119 54 134 0.0 0.0 0.00 0.00 0.00 73 1015.2
20260503052116 55 134 0.0 0.0 0.00 0.00 0.00 73 1015.1
20260503051134 56 124 0.0 0.0 0.00 0.00 0.00 71 1015.1
20260503050149 57 127 0.0 2.0 0.00 0.00 0.00 68 1015.0
20260503045129 56 124 0.0 2.0 0.00 0.00 0.00 70 1014.9
20260503044124 57 124 0.0 3.0 0.00 0.00 0.00 69 1014.8
20260503043120 57 137 0.0 0.0 0.00 0.00 0.00 67 1014.8
20260503042138 58 136 0.0 0.0 0.00 0.00 0.00 66 1014.6
20260503041117 59 124 0.0 0.0 0.00 0.00 0.00 65 1014.4
20260503040134 60 150 0.0 0.0 0.00 0.00 0.00 63 1014.2
20260503035130 61 116 0.0 0.0 0.00 0.00 0.00 62 1014.1
20260503034126 62 116 0.0 0.0 0.00 0.00 0.00 59 1014.0
20260503033127 64 116 0.0 0.0 0.00 0.00 0.00 54 1013.9
20260503032123 67 116 0.0 0.0 0.00 0.00 0.00 51 1013.8
20260503031119 69 109 0.0 0.0 0.00 0.00 0.00 46 1013.7
20260503030120 71 109 0.0 1.0 0.00 0.00 0.00 37 1013.5
20260503025136 73 122 0.0 1.0 0.00 0.00 0.00 35 1013.4
20260503024113 74 122 0.0 5.0 0.00 0.00 0.00 33 1013.3
20260503023129 75 172 0.0 1.0 0.00 0.00 0.00 33 1013.2
20260503022110 75 165 0.0 5.0 0.00 0.00 0.00 32 1013.2
20260503021128 76 133 0.0 5.0 0.00 0.00 0.00 31 1013.1
20260503020124 76 147 0.0 3.0 0.00 0.00 0.00 32 1013.0
20260503015124 77 120 1.0 7.0 0.00 0.00 0.00 30 1013.1
20260503014120 78 167 0.0 4.0 0.00 0.00 0.00 29 1013.1
20260503013117 79 160 0.0 2.0 0.00 0.00 0.00 29 1013.1
20260503012116 79 155 0.0 7.0 0.00 0.00 0.00 29 1013.0
20260503011133 79 176 0.0 5.0 0.00 0.00 0.00 29 1013.1
20260503010129 79 160 1.0 7.0 0.00 0.00 0.00 29 1013.0
20260503005126 80 98 0.0 5.0 0.00 0.00 0.00 28 1012.9
20260503004124 79 175 1.0 7.0 0.00 0.00 0.00 27 1012.9
20260503003121 80 101 1.0 5.0 0.00 0.00 0.00 27 1013.0
20260503002117 79 145 1.0 5.0 0.00 0.00 0.00 28 1013.0
20260503001114 80 148 2.0 6.0 0.00 0.00 0.00 29 1012.9
20260503000114 80 176 2.0 8.0 0.00 0.00 0.00 27 1013.0
20260502235111 80 106 1.0 7.0 0.00 0.00 0.00 27 1013.0
20260502234129 80 162 0.0 6.0 0.00 0.00 0.00 29 1013.0
20260502233110 80 171 2.0 7.0 0.00 0.00 0.00 28 1013.0
20260502232127 80 151 1.0 6.0 0.00 0.00 0.00 28 1013.2
20260502231123 80 124 1.0 6.0 0.00 0.00 0.00 29 1013.4
20260502230124 80 165 0.0 5.0 0.00 0.00 0.00 28 1013.4
20260502225121 79 114 1.0 7.0 0.00 0.00 0.00 28 1013.6
20260502224118 78 115 0.0 5.0 0.00 0.00 0.00 31 1013.7
20260502223116 78 92 0.0 6.0 0.00 0.00 0.00 30 1013.9
20260502222117 78 120 2.0 8.0 0.00 0.00 0.00 30 1013.9
20260502221114 77 141 0.0 4.0 0.00 0.00 0.00 34 1014.0
20260502220112 76 166 1.0 6.0 0.00 0.00 0.00 34 1014.1
20260502215114 76 113 0.0 3.0 0.00 0.00 0.00 35 1014.1
20260502214151 76 96 2.0 5.0 0.00 0.00 0.00 36 1014.1
20260502213128 76 175 0.0 4.0 0.00 0.00 0.00 35 1014.2
20260502212125 76 98 4.0 8.0 0.00 0.00 0.00 34 1014.3
20260502211127 75 121 0.0 2.0 0.00 0.00 0.00 42 1014.4
20260502210126 73 120 0.0 1.0 0.00 0.00 0.00 40 1014.4
20260502205122 72 139 0.0 4.0 0.00 0.00 0.00 41 1014.5
20260502204124 72 92 0.0 5.0 0.00 0.00 0.00 45 1014.2
20260502203121 73 161 0.0 3.0 0.00 0.00 0.00 36 1014.8
20260502202117 74 92 0.0 1.0 0.00 0.00 0.00 37 1015.3
20260502201117 74 105 0.0 7.0 0.00 0.00 0.00 36 1015.2
20260502200115 75 104 1.0 6.0 0.00 0.00 0.00 35 1015.1
20260502195112 75 177 3.0 17.0 0.00 0.00 0.00 33 1015.1
20260502194112 76 127 0.0 10.0 0.00 0.00 0.00 34 1015.0
20260502193130 76 179 2.0 11.0 0.00 0.00 0.00 35 1015.1
20260502192127 76 115 4.0 13.0 0.00 0.00 0.00 34 1015.0
20260502191124 76 115 2.0 12.0 0.00 0.00 0.00 35 1015.0
20260502190126 76 113 4.0 12.0 0.00 0.00 0.00 34 1014.9
20260502185123 77 112 2.0 10.0 0.00 0.00 0.00 36 1014.7